When you browse on this site, cookies collect data to enhance your experience and personalize the content and advertising you see.
Visit our Privacy Policy to learn more. By continuing to use the site, you agree to this use of cookies and data.

Stündliche Wetter Bolshie Moshki

Heute, 23 September, Mittwoch

Zeit Temperatur Niederschläge Wind Luftdruck Luftfeuchtigkeit
00:00 +10°C° 0 mm 2 m/S 737 mmHg 95%
01:00 +9°C° 0 mm 2 m/S 737 mmHg 95%
02:00 +9°C° 0 mm 2 m/S 737 mmHg 96%
03:00 +9°C° 0 mm 2 m/S 737 mmHg 96%
04:00 +10°C° 0 mm 1 m/S 737 mmHg 96%
05:00 +9°C° 0 mm 1 m/S 737 mmHg 96%
06:00 +10°C° 0 mm 1 m/S 738 mmHg 93%
07:00 +12°C° 0 mm 2 m/S 738 mmHg 89%
08:00 +13°C° 0 mm 2 m/S 738 mmHg 86%
09:00 +15°C° 0 mm 2 m/S 738 mmHg 80%
10:00 +17°C° 0 mm 2 m/S 738 mmHg 73%
11:00 +18°C° 0 mm 2 m/S 738 mmHg 67%
12:00 +19°C° 0 mm 2 m/S 738 mmHg 65%
13:00 +20°C° 0 mm 2 m/S 738 mmHg 63%
14:00 +20°C° 0 mm 2 m/S 738 mmHg 61%
15:00 +19°C° 0 mm 2 m/S 737 mmHg 68%
16:00 +18°C° 0 mm 2 m/S 737 mmHg 75%
17:00 +17°C° 0 mm 2 m/S 737 mmHg 81%
18:00 +16°C° 0 mm 2 m/S 737 mmHg 86%
19:00 +15°C° 0 mm 2 m/S 737 mmHg 90%
20:00 +14°C° 0 mm 2 m/S 737 mmHg 95%
21:00 +13°C° 0 mm 2 m/S 737 mmHg 95%
22:00 +13°C° 0 mm 2 m/S 737 mmHg 95%
23:00 +13°C° 0 mm 2 m/S 737 mmHg 96%

Morgen, 24 September, Donnerstag

Zeit Temperatur Niederschläge Wind Luftdruck Luftfeuchtigkeit
00:00 +12°C° 0 mm 2 m/S 737 mmHg 95%
01:00 +12°C° 0 mm 2 m/S 737 mmHg 94%
02:00 +10°C° 0 mm 2 m/S 738 mmHg 93%
03:00 +10°C° 0 mm 2 m/S 738 mmHg 91%
04:00 +9°C° 0 mm 2 m/S 738 mmHg 90%
05:00 +9°C° 0 mm 2 m/S 737 mmHg 89%
06:00 +10°C° 0 mm 2 m/S 738 mmHg 83%
07:00 +12°C° 0 mm 2 m/S 738 mmHg 78%
08:00 +12°C° 0 mm 3 m/S 738 mmHg 72%
09:00 +14°C° 0 mm 3 m/S 738 mmHg 67%
10:00 +16°C° 0 mm 3 m/S 738 mmHg 62%
11:00 +18°C° 0 mm 3 m/S 738 mmHg 57%
12:00 +18°C° 0 mm 3 m/S 738 mmHg 54%
13:00 +19°C° 0 mm 3 m/S 738 mmHg 52%
14:00 +19°C° 0 mm 3 m/S 738 mmHg 50%
15:00 +18°C° 0 mm 3 m/S 738 mmHg 58%
16:00 +17°C° 0 mm 2 m/S 738 mmHg 66%
17:00 +15°C° 0 mm 2 m/S 738 mmHg 74%
18:00 +14°C° 0 mm 2 m/S 738 mmHg 77%
19:00 +13°C° 0 mm 2 m/S 738 mmHg 81%
20:00 +12°C° 0 mm 2 m/S 738 mmHg 85%
21:00 +12°C° 0 mm 2 m/S 738 mmHg 86%
22:00 +10°C° 0 mm 2 m/S 738 mmHg 86%
23:00 +10°C° 0 mm 2 m/S 738 mmHg 87%

übermorgen, 25 September, Freitag

Zeit Temperatur Niederschläge Wind Luftdruck Luftfeuchtigkeit
00:00 +10°C° 0 mm 2 m/S 739 mmHg 87%
01:00 +10°C° 0 mm 2 m/S 739 mmHg 87%
02:00 +10°C° 0 mm 2 m/S 739 mmHg 87%
03:00 +9°C° 0 mm 2 m/S 739 mmHg 88%
04:00 +9°C° 0 mm 2 m/S 738 mmHg 89%
05:00 +9°C° 0 mm 2 m/S 738 mmHg 90%
06:00 +10°C° 0 mm 2 m/S 738 mmHg 85%
07:00 +12°C° 0 mm 2 m/S 738 mmHg 79%
08:00 +13°C° 0 mm 3 m/S 738 mmHg 74%
09:00 +14°C° 0 mm 3 m/S 738 mmHg 69%
10:00 +17°C° 0 mm 3 m/S 738 mmHg 65%
11:00 +18°C° 0 mm 3 m/S 738 mmHg 60%
12:00 +19°C° 0 mm 3 m/S 738 mmHg 58%
13:00 +20°C° 0 mm 3 m/S 738 mmHg 56%
14:00 +21°C° 0 mm 4 m/S 738 mmHg 55%
15:00 +19°C° 0 mm 3 m/S 738 mmHg 61%
16:00 +18°C° 0 mm 3 m/S 738 mmHg 68%
17:00 +17°C° 0 mm 3 m/S 737 mmHg 74%
18:00 +16°C° 0 mm 3 m/S 737 mmHg 76%
19:00 +14°C° 0 mm 3 m/S 737 mmHg 79%
20:00 +13°C° 0 mm 3 m/S 738 mmHg 81%
21:00 +13°C° 0 mm 3 m/S 738 mmHg 83%
22:00 +12°C° 0 mm 3 m/S 738 mmHg 85%
23:00 +12°C° 0 mm 3 m/S 738 mmHg 87%

26 September, Samstag

Zeit Temperatur Niederschläge Wind Luftdruck Luftfeuchtigkeit
00:00 +12°C° 0 mm 3 m/S 738 mmHg 87%
01:00 +11°C° 0 mm 3 m/S 738 mmHg 88%
02:00 +11°C° 0 mm 3 m/S 738 mmHg 88%
03:00 +11°C° 0 mm 3 m/S 738 mmHg 87%
04:00 +11°C° 0 mm 3 m/S 738 mmHg 85%
05:00 +11°C° 0 mm 3 m/S 738 mmHg 84%
06:00 +12°C° 0 mm 3 m/S 738 mmHg 80%
07:00 +13°C° 0 mm 3 m/S 738 mmHg 75%
08:00 +14°C° 0 mm 4 m/S 738 mmHg 71%
09:00 +15°C° 0 mm 4 m/S 738 mmHg 67%
10:00 +18°C° 0 mm 4 m/S 739 mmHg 62%
11:00 +19°C° 0 mm 4 m/S 739 mmHg 58%
12:00 +20°C° 0 mm 4 m/S 739 mmHg 57%
13:00 +20°C° 0 mm 4 m/S 739 mmHg 57%
14:00 +21°C° 0 mm 4 m/S 739 mmHg 56%
15:00 +20°C° 0 mm 4 m/S 739 mmHg 62%
16:00 +18°C° 0 mm 3 m/S 739 mmHg 68%
17:00 +17°C° 0 mm 3 m/S 739 mmHg 74%
18:00 +16°C° 0 mm 3 m/S 739 mmHg 76%
19:00 +14°C° 0 mm 3 m/S 740 mmHg 77%
20:00 +14°C° 0 mm 4 m/S 740 mmHg 79%
21:00 +13°C° 0 mm 3 m/S 740 mmHg 79%
22:00 +12°C° 0 mm 3 m/S 740 mmHg 78%
23:00 +12°C° 0 mm 3 m/S 740 mmHg 78%

27 September, Sonntag

Zeit Temperatur Niederschläge Wind Luftdruck Luftfeuchtigkeit
00:00 +11°C° 0 mm 3 m/S 740 mmHg 78%
01:00 +11°C° 0 mm 3 m/S 740 mmHg 78%
02:00 +10°C° 0 mm 3 m/S 740 mmHg 78%
03:00 +10°C° 0 mm 4 m/S 740 mmHg 78%
04:00 +10°C° 0 mm 4 m/S 740 mmHg 79%
05:00 +10°C° 0 mm 4 m/S 740 mmHg 79%
06:00 +11°C° 0 mm 4 m/S 740 mmHg 77%
07:00 +11°C° 0 mm 4 m/S 740 mmHg 74%
08:00 +12°C° 0 mm 4 m/S 740 mmHg 71%
09:00 +14°C° 0 mm 4 m/S 740 mmHg 68%
10:00 +15°C° 0 mm 4 m/S 740 mmHg 64%
11:00 +17°C° 0 mm 5 m/S 740 mmHg 60%
12:00 +19°C° 0 mm 5 m/S 740 mmHg 60%
13:00 +19°C° 0 mm 5 m/S 740 mmHg 59%
14:00 +20°C° 0 mm 5 m/S 740 mmHg 58%
15:00 +19°C° 0 mm 4 m/S 740 mmHg 62%
16:00 +18°C° 0 mm 4 m/S 740 mmHg 67%
17:00 +15°C° 0 mm 4 m/S 740 mmHg 71%
18:00 +15°C° 0 mm 4 m/S 740 mmHg 70%
19:00 +14°C° 0 mm 4 m/S 740 mmHg 69%
20:00 +13°C° 0 mm 4 m/S 740 mmHg 68%
21:00 +12°C° 0 mm 4 m/S 740 mmHg 67%
22:00 +11°C° 0 mm 4 m/S 740 mmHg 67%
23:00 +11°C° 0 mm 4 m/S 740 mmHg 66%

28 September, Montag

Zeit Temperatur Niederschläge Wind Luftdruck Luftfeuchtigkeit
00:00 +10°C° 0 mm 4 m/S 740 mmHg 67%
01:00 +10°C° 0 mm 4 m/S 740 mmHg 68%
02:00 +8°C° 0 mm 4 m/S 740 mmHg 69%
03:00 +8°C° 0 mm 4 m/S 739 mmHg 69%
04:00 +8°C° 0 mm 4 m/S 739 mmHg 70%
05:00 +8°C° 0 mm 4 m/S 739 mmHg 71%
06:00 +8°C° 0 mm 4 m/S 739 mmHg 69%
07:00 +9°C° 0 mm 5 m/S 739 mmHg 66%
08:00 +9°C° 0 mm 5 m/S 739 mmHg 64%
09:00 +10°C° 0 mm 5 m/S 739 mmHg 62%
10:00 +12°C° 0 mm 5 m/S 739 mmHg 59%
11:00 +12°C° 0 mm 5 m/S 739 mmHg 57%
12:00 +12°C° 0 mm 5 m/S 739 mmHg 61%
13:00 +12°C° 0 mm 5 m/S 739 mmHg 66%
14:00 +10°C° 0 mm 5 m/S 739 mmHg 70%
15:00 +10°C° 0.1 mm 5 m/S 739 mmHg 76%
16:00 +10°C° 0.1 mm 4 m/S 739 mmHg 81%
17:00 +8°C° 0.1 mm 4 m/S 739 mmHg 87%
18:00 +8°C° 0.1 mm 4 m/S 739 mmHg 89%
19:00 +8°C° 0.1 mm 4 m/S 740 mmHg 90%
20:00 +7°C° 0.1 mm 4 m/S 740 mmHg 92%
21:00 +8°C° 0.1 mm 4 m/S 740 mmHg 92%
22:00 +9°C° 0.1 mm 3 m/S 740 mmHg 93%
23:00 +9°C° 0.1 mm 3 m/S 741 mmHg 94%
Mehr zeigen